Погода в Серове

Поиск расширенной информации на нашем сайте:

Полезная информация:

Новости сайта



02.01.2020
Опубликован Долгосрочный прогноз погоды по городам России и ближнего зарубежья на январь 2020 года.
Карты: Прогноз на январь и февраль 2020 года, Сравнение прогнозируемой аномалии приземной температуры воздуха на январь 2020 года по разным моделям.




Погода в Серове - сегодня

Время (UTC), дата Ветер
(°,м/с) 
Видим.   Явления Облачность Т
(°С)
Тd
(°С)
f(%) Тe
(°С)
Pmin
(гПа)
dP
(гПа)
Po
(мм)
O2
(г/м3)
Тmin Tmax R s Состояние
почвы
09 16.01.21 010 (С) 10 км  слаб. снег  10/0 средняя 
[As op]
-18.9 -21.9 77 -19  1010.8  -2.4  746  324           
12 16.01.21 010 (С) 2000 м  слаб. снег  10/0 средняя 
[As op]
-19.5 -22.6 76 -22  1007.8  -3  743  324           
15 16.01.21 010 (С) 2000 м  слаб. снег  10/0 средняя 
[As op]
-19 -22.1 76 -22  1005.2  -2.6  741  323    -18.6     
18 16.01.21 340 (С) 2000 м  слаб. снег  10/0 средняя 
[As op]
-19.6 -22.7 76 -22  1003.2  -1.9  740  323           
21 16.01.21 330 (СЗ) 2000 м  слаб. снег  10/0 средняя 
[As op]
-19.8 -23 76 -23  1002.5  -0.7  739  323           
00 17.01.21 280 (З) 10 км  {снег}  10/0 средняя 
[Ac As]
-20.8 -24 75 -21  1002.1  -0.5  739  324           
03 17.01.21 290 (З) 10 км    10/0 средняя 
[As trans]
-23 -26.4 74 -23  1000.8  -1.4  738  326  -23.1    48  равномерный
сухой снег
100% 
06 17.01.21 290 (З) 20000 м    6/0 средняя 
[Ac trans]
-22.8 -26.3 73 -23  1000  -0.8  737  326  -23.7         
09 17.01.21 340 (С) 20000 м    6/0 средняя 
[Ac trans]
-19.6 -22.9 75 -20  999.4  -0.3  737  322           
12 17.01.21 280 (З) 10 км    8/0 средняя 
[Ac trans]
-20.9 -24.1 75 -21  1000.5  738  324           
15 17.01.21 270 (З) 2000 м  слаб. снег  10/0 средняя 
[As trans]
-21.3 -24.5 75 -22  1002.5  1.9  739  325    -19.3  0.0     
18 17.01.21 270 (З) 10 км  {снег}  4/0 средняя 
[Ac trans]
-23.6 -27 74 -24  1004.6  1.9  741  328           
21 17.01.21 290 (З) 10 км    3/0 средняя 
[Ac trans]
-21.3 -24.6 75 -26  1006.2  1.7  742  326           
00 18.01.21 290 (З) 10 км    5/0 
-19 -22.8 72 -25  1009  2.9  744  324           
03 18.01.21 250 (З) 10 км    8/0 средняя 
[Ac trans]
-19.4 -23.4 71 -20  1010.6  1.5  745  325  -24.9    0.0  49  равномерный
сухой снег
100% 
06 18.01.21 250 (З) 20000 м    5/0 средняя 
[Ac trans]
-19 -22.9 71 -22  1012  1.4  746  325           
09 18.01.21 270 (З) 20000 м    8/0 верхняя 
[Cs]
-16.4 -21.5 65 -21  1012.6  0.7  747  322           
12 18.01.21 260 (З) 10 км    ясно 
-19.6 -23.1 74 -24  1014.3  1.5  748  326           
15 18.01.21 280 (З) 10 км    5/0 средняя 
[Ac trans]
-18.3 -22.8 68 -24  1015.2  749  325    -16       
18 18.01.21 280 (З) 10 км    3/0 средняя 
[Ac trans]
-20.8 -24.4 73 -21  1017.1  1.7  750  329           
21 18.01.21 290 (З) 10 км    5/0 средняя 
[Ac trans]
-23.6 -26.8 75 -27  1018.9  1.7  751  333           
00 19.01.21 330 (СЗ) 10 км    3/0 средняя 
[Ac trans]
-25.9 -29.7 70 -26  1020.4  1.3  752  337           
03 19.01.21 280 (З) 10 км    ясно 
-31.3 -35.5 66 -35  1021.8  753  345  -31.4      47  равномерный
сухой снег
100% 
06 19.01.21 290 (З) 20000 м    3/0 верхняя 
[Ci fib]
-30.4 -34.9 65 -34  1022.6  0.8  754  344  -32.5         
09 19.01.21 тихо ()   20000 м    3/0 верхняя 
[Ci fib]
-21.4 -24.9 73 -21  1022.4  0.5  754  331           
Время (UTC), дата Ветер
(°,м/с) 
Видим.   Явления Облачность Т
(°С)
Тd
(°С)
f(%) Тe
(°С)
Pmin
(гПа)
dP
(гПа)
Po
(мм)
O2
(г/м3)
Тmin Tmax R s Состояние
почвы

Для получения пояснительной информации подведите курсор к названию столбца.

ПОГОДА в Серове - архив

Всё, что Вы хотите узнать о погоде в Серове - удобно и подробно!

Выберите нужную дату (начиная с 1 января 2019* года) и нажмите кнопку "Найти".
Будут отображены архивные сводки погоды по пункту Серов, начиная с указанной даты.


Отображать данные в формате CSV (для использования в таблицах Excel)


Внимание! Наш архив погоды предназначен исключительно для личного некоммерческого использования в познавательных целях. Если Вам необходимы официальные справки о состоянии погоды (для производственных, юридических, коммерческих и т.п. целей), обращайтесь в органы Росгидромета.

*Примечание: данная дата относится к архиву по метеостанциям СССР (Россия, СНГ, Балтия).
Архив по метеостанциям Зарубежной Европы и Азии (кроме Китая) хранится 10 дней, по другим регионам земного шара (Китай, Африка, Америка, Австралия, Океания) - 1 день.

Серов - район местоположения метеостанции


Название, широта, долгота, высота метеостанции:
Серов 59.6°ш. 60.5°д. 130 м над ур. моря [Российская Федерация]

Дополнительная информация

В oтличие oт бoльшинства пoгoдных сайтoв мы публикуем пoдрoбную метеoинфoрмацию в детальнoм прoфессиoнальнoм фoрмате.

Характеристики температуры и влажнoсти вoздуха измеряются на высoте 2 м в тени вдали oт зданий и деревьев.
Скoрoсть ветра измеряется на высoте 10 м (на урoвне рoста челoвека скoрoсть ветра ниже в 1.5-2 раза). Если метеoстанция нахoдится в гoрoде или в лесу, тo скoрoсть ветра занижена на 2-4 м/с пo сравнению с oткрытым местoм. Скoрoсть ветра над акватoриями крупных рек и oзёр, а также на вершинах хoлмoв на 2-5 м/с выше, чем в oбычных услoвиях.
Атмoсфернoе давление в разных тoчках местнoсти мoжет значительнo oтличаться oт давления на метеoстанции, в зависимoсти oт услoвий рельефа (при пoдъёме на 10 м давление пoнижается примернo на 1 мм рт.ст.).